NEE-01 PEGASO

Last updated on Mon Sep 21 2026 00:03:44 GMT+0000 (Coordinated Universal Time)

1 39151U 13018B 26262.37488305 .00001891 00000+0 18282-3 0 9990 2 39151 98.1360 49.7412 0011740 208.4985 151.5593 14.94039522724768
UTC large
Height (km)
Speed (km/s)
/
Latitude / Longitude
Inclination (degrees)
Orbital Period (minutes)
Azimuth
Elevation
Range (km)
Doppler Factor

Next 0 passes for location: London (51.5072 / 0.1276)

No passes found over London.
NEE-01 PEGASO